COSMOS 1252

Satellite information

Favourite Embed

Satellite Type and Status

PAYLOADIN ORBIT

Key statistics

Satellite COSMOS 1252 at a glance.

Uptime

16358

Days in orbit

Revolutions

≈ 12.5

Per day

Orbit

LEO

Low Earth Orbit

Inclination

74.0

Latest

Satellite identification and parameters

Extended collection of information and parameters for COSMOS 1252.

Object identification

Identified? True

Debris? False

Object name: COSMOS 1252

International designator: 1981-022C

Object number (NORAD): 12322

Object ID (CCSDS): 12322

Country: COMMONWEALTH OF INDEPENDENT STATES (CIS)

Current information (Y/N): Y

RCS size: MEDIUM

Orbital parameters

Period: 114.759 minutes

Inclination: 74.0309 deg

SMA: 7822.587 km

Apoapsis: 1471.136 km

Periapsis: 1417.768 km

RAAN: 17.533 deg

Eccentricy: 0.00341117

Argument of periapsis: 144.507 deg

Mean anomaly: 28.0982 deg

Mean motion: 12.54807592 rev/day

Mean motion (dot): 0.00000005 rev/day2

B* drag term: 0.00012779611 1/REarth

Two-line elements (TLE)

Creation date: Dec. 18, 2025, 2:19 a.m.

Reference frame: TEME

Reference center: EARTH

Epoch: Dec. 17, 2025, 8:26 p.m. UTC

TLE line 0: 0 COSMOS 1252

TLE line 1: 1 12322U 81022C 25351.85189299 .00000005 00000-0 12780-3 0 9996

TLE line 2: 2 12322 74.0309 17.5330 0034112 144.5070 28.0982 12.54807592 51408

Live tracking on map

Real-time ground track for satellite COSMOS 1252.

In-orbit conjunctions

A list of the most updated potential collisions computed for object COSMOS 1252.

Target Orbit TCA Probability of collision Miss distance Type
DELTA 1 DEB SSO 2024-09-30 21:14:01 0.0002459494 239.0 (m) DEBRIS

Associated space launch

Military communications satellites

COSMOS 1252 was lifted into orbit during the mission ‘Kosmos-3M | Strela-1M 209-216’, on board a Kosmos-3M space rocket.

The launch took place on March 6, 1981, 11:31 a.m. from 132/2.

For more information about the launch, click the button.

Launch to space Kosmos-3M | Strela-1M 209-216
Kosmos-3M | Strela-1M 209-216

Agency: N/A

Status: Launch Successful

Launch date: March 6, 1981, 11:31 a.m. UTC

Rocket: Kosmos-3M

Launch pad: 132/2

Location: Plesetsk Cosmodrome, Russian Federation

...

Latest news about this satellite

There are no fresh news available about this satellite. Check back as we update our databases every day.


Newsletter sign-up

Weekly statistics, charts and insights to help you stay on top of the space industry.